�������l�o���
Date,Time,MP-1(��Sv/h),MP-2(��Sv/h),MP-3(��Sv/h),MP-4(��Sv/h),MP-5(��Sv/h),MP-6(��Sv/h),MP-7(��Sv/h),MP-8(��Sv/h),����,����(m/s),���J
2022/08/31,00:00,0.574,0.802,0.513,0.983,0.696,0.332,0.574,0.543,�k��,2.3,��
2022/08/31,00:10,0.573,0.801,0.514,0.983,0.700,0.333,0.576,0.544,�k�k��,2.5,�L
2022/08/31,00:20,0.573,0.802,0.513,0.984,0.698,0.333,0.576,0.545,�k�k��,3.2,�L
2022/08/31,00:30,0.570,0.798,0.513,0.978,0.695,0.332,0.575,0.544,-,CALM,�L
2022/08/31,00:40,0.565,0.787,0.508,0.968,0.687,0.331,0.572,0.542,��쐼,1.9,�L
2022/08/31,00:50,0.565,0.786,0.508,0.966,0.686,0.331,0.571,0.541,���쐼,1.1,�L
2022/08/31,01:00,0.565,0.789,0.509,0.966,0.687,0.332,0.572,0.542,�k�k��,1.4,�L
2022/08/31,01:10,0.568,0.794,0.508,0.969,0.689,0.329,0.572,0.543,�k�k��,3.5,�L
2022/08/31,01:20,0.568,0.792,0.510,0.969,0.688,0.332,0.572,0.542,�k�k��,3.0,��
2022/08/31,01:30,0.570,0.794,0.507,0.971,0.690,0.330,0.572,0.543,�k��,3.3,��
2022/08/31,01:40,0.570,0.795,0.508,0.971,0.690,0.332,0.573,0.542,�k�k��,2.6,��
2022/08/31,01:50,0.570,0.795,0.509,0.973,0.690,0.331,0.573,0.543,�k�k��,1.4,�L
2022/08/31,02:00,0.570,0.794,0.510,0.972,0.690,0.332,0.572,0.541,�k�k��,1.5,�L
2022/08/31,02:10,0.569,0.795,0.511,0.976,0.692,0.332,0.573,0.541,�k�k��,3.6,�L
2022/08/31,02:20,0.568,0.796,0.510,0.976,0.691,0.331,0.574,0.542,�k�k��,3.8,��
2022/08/31,02:30,0.570,0.797,0.510,0.974,0.693,0.332,0.572,0.543,�k�k��,4.2,��
2022/08/31,02:40,0.569,0.795,0.510,0.977,0.692,0.332,0.573,0.543,�k�k��,3.9,��
2022/08/31,02:50,0.569,0.798,0.511,0.974,0.693,0.331,0.573,0.541,�k�k��,4.0,��
2022/08/31,03:00,0.568,0.797,0.511,0.976,0.694,0.332,0.574,0.541,�k�k��,4.3,�L
2022/08/31,03:10,0.570,0.796,0.511,0.976,0.695,0.332,0.573,0.542,�k�k��,3.5,�L
2022/08/31,03:20,0.570,0.796,0.510,0.975,0.693,0.331,0.572,0.543,�k�k��,3.1,�L
2022/08/31,03:30,0.569,0.795,0.510,0.974,0.691,0.332,0.572,0.541,�k�k��,3.0,�L
2022/08/31,03:40,0.569,0.795,0.510,0.975,0.691,0.331,0.573,0.543,�k�k��,2.6,��
2022/08/31,03:50,0.569,0.796,0.511,0.976,0.694,0.331,0.573,0.543,�k,1.9,��
2022/08/31,04:00,0.570,0.797,0.510,0.977,0.694,0.331,0.573,0.544,�k�k��,2.6,��
2022/08/31,04:10,0.571,0.797,0.510,0.975,0.693,0.331,0.575,0.541,�k�k��,0.9,��
2022/08/31,04:20,0.570,0.797,0.511,0.974,0.694,0.331,0.573,0.541,�k�k��,0.8,��
2022/08/31,04:30,0.571,0.798,0.511,0.979,0.694,0.329,0.575,0.545,�k�k��,0.8,��
2022/08/31,04:40,0.569,0.797,0.510,0.979,0.695,0.330,0.576,0.543,�k��,0.6,��
2022/08/31,04:50,0.570,0.798,0.511,0.978,0.693,0.331,0.573,0.543,-,CALM,��
2022/08/31,05:00,0.571,0.799,0.511,0.976,0.694,0.332,0.573,0.543,�k��,0.8,��
2022/08/31,05:10,0.571,0.798,0.511,0.976,0.694,0.331,0.574,0.544,�k�k��,1.1,��
2022/08/31,05:20,0.570,0.800,0.510,0.977,0.693,0.332,0.573,0.544,���k��,0.8,��
2022/08/31,05:30,0.571,0.802,0.512,0.978,0.696,0.332,0.575,0.544,�k��,0.6,��
2022/08/31,05:40,0.571,0.799,0.512,0.979,0.695,0.331,0.574,0.544,�k,0.6,��
2022/08/31,05:50,0.573,0.801,0.512,0.978,0.694,0.332,0.576,0.546,�k,1.9,��
2022/08/31,06:00,0.572,0.801,0.513,0.980,0.696,0.331,0.576,0.545,�k,1.4,��
2022/08/31,06:10,0.574,0.801,0.512,0.980,0.697,0.332,0.575,0.544,�k��,0.8,��
2022/08/31,06:20,0.571,0.802,0.512,0.977,0.697,0.332,0.576,0.546,�k,1.2,��
2022/08/31,06:30,0.571,0.801,0.512,0.981,0.693,0.331,0.577,0.544,�k,1.5,��
2022/08/31,06:40,0.571,0.801,0.512,0.978,0.696,0.332,0.575,0.544,�k��,0.8,��
2022/08/31,06:50,0.572,0.800,0.511,0.979,0.697,0.331,0.576,0.544,���k��,0.6,��
2022/08/31,07:00,0.571,0.800,0.512,0.980,0.695,0.332,0.577,0.545,���k��,0.6,��
2022/08/31,07:10,0.573,0.800,0.511,0.981,0.695,0.330,0.576,0.545,�k��,0.8,��
2022/08/31,07:20,0.572,0.801,0.512,0.981,0.697,0.331,0.576,0.544,�k��,0.8,��
2022/08/31,07:30,0.572,0.801,0.511,0.979,0.696,0.331,0.576,0.543,-,CALM,��
2022/08/31,07:40,0.571,0.797,0.513,0.981,0.697,0.331,0.575,0.543,���쓌,0.6,��
2022/08/31,07:50,0.574,0.798,0.512,0.980,0.696,0.332,0.575,0.545,���쓌,1.2,��
2022/08/31,08:00,0.573,0.799,0.514,0.981,0.696,0.331,0.574,0.544,�쓌,1.5,��
2022/08/31,08:10,0.573,0.799,0.513,0.981,0.697,0.331,0.574,0.543,��쓌,1.7,��
2022/08/31,08:20,0.571,0.801,0.512,0.980,0.695,0.331,0.575,0.544,���쓌,0.9,��
2022/08/31,08:30,0.572,0.800,0.512,0.982,0.696,0.332,0.576,0.544,���쓌,1.2,��
2022/08/31,08:40,0.575,0.802,0.512,0.981,0.693,0.332,0.574,0.543,���쓌,2.3,��
2022/08/31,08:50,0.572,0.800,0.511,0.981,0.696,0.331,0.577,0.545,�쓌,2.3,��
2022/08/31,09:00,0.574,0.800,0.510,0.982,0.697,0.331,0.577,0.544,��쓌,2.0,��
2022/08/31,09:10,0.574,0.802,0.513,0.981,0.698,0.333,0.577,0.544,��쓌,2.6,��
2022/08/31,09:20,0.575,0.803,0.513,0.980,0.697,0.331,0.576,0.546,�쓌,2.0,��
2022/08/31,09:30,0.576,0.802,0.512,0.978,0.696,0.332,0.576,0.544,��쓌,2.0,��
2022/08/31,09:40,0.575,0.803,0.512,0.978,0.697,0.333,0.574,0.543,��쓌,3.3,��
2022/08/31,09:50,0.575,0.802,0.514,0.981,0.699,0.333,0.576,0.544,��쓌,4.0,��
2022/08/31,10:00,0.575,0.805,0.514,0.980,0.698,0.333,0.576,0.545,��쓌,3.1,��
2022/08/31,10:10,0.574,0.804,0.513,0.979,0.698,0.333,0.576,0.544,��쓌,2.6,��
2022/08/31,10:20,0.576,0.807,0.513,0.979,0.700,0.332,0.577,0.544,�쓌,2.5,��
2022/08/31,10:30,0.576,0.806,0.514,0.979,0.700,0.334,0.577,0.544,��쓌,2.8,��
2022/08/31,10:40,0.577,0.806,0.514,0.980,0.699,0.331,0.576,0.544,��쓌,2.5,��
2022/08/31,10:50,0.577,0.805,0.515,0.981,0.700,0.334,0.578,0.544,�쓌,2.0,��
2022/08/31,11:00,0.575,0.805,0.515,0.979,0.701,0.333,0.576,0.544,���쓌,1.7,��
2022/08/31,11:10,0.575,0.805,0.514,0.981,0.700,0.334,0.579,0.544,�쓌,3.1,��
2022/08/31,11:20,0.576,0.807,0.515,0.983,0.701,0.333,0.577,0.546,��쓌,3.0,��
2022/08/31,11:30,0.578,0.808,0.515,0.981,0.702,0.333,0.579,0.545,��,2.6,��
2022/08/31,11:40,0.579,0.808,0.515,0.982,0.702,0.331,0.577,0.546,��쓌,2.3,��
2022/08/31,11:50,0.579,0.808,0.516,0.984,0.702,0.332,0.575,0.544,��쓌,3.5,��
2022/08/31,12:00,0.578,0.807,0.516,0.983,0.704,0.334,0.578,0.545,��쓌,3.3,��
2022/08/31,12:10,0.577,0.811,0.517,0.982,0.701,0.333,0.577,0.546,��쓌,3.4,��
2022/08/31,12:20,0.580,0.811,0.517,0.981,0.702,0.333,0.578,0.547,��쓌,3.6,��
2022/08/31,12:30,0.580,0.811,0.517,0.984,0.702,0.333,0.578,0.545,��,5.2,��
2022/08/31,12:40,0.578,0.811,0.515,0.984,0.702,0.333,0.578,0.545,��,5.9,��
2022/08/31,12:50,0.577,0.811,0.518,0.982,0.703,0.333,0.579,0.544,��,5.8,��
2022/08/31,13:00,0.578,0.810,0.517,0.982,0.703,0.332,0.580,0.544,��,4.5,��
2022/08/31,13:10,0.581,0.808,0.517,0.982,0.702,0.335,0.579,0.545,��,4.5,��
2022/08/31,13:20,0.580,0.809,0.518,0.983,0.704,0.333,0.578,0.546,��쓌,6.0,��
2022/08/31,13:30,0.578,0.811,0.519,0.984,0.702,0.334,0.580,0.546,��쓌,5.8,��
2022/08/31,13:40,0.580,0.812,0.518,0.983,0.704,0.334,0.579,0.547,��쓌,3.3,��
2022/08/31,13:50,0.579,0.811,0.520,0.984,0.705,0.335,0.579,0.547,��쓌,3.5,��
2022/08/31,14:00,0.582,0.812,0.519,0.986,0.703,0.333,0.579,0.546,��쓌,3.8,��
2022/08/31,14:10,0.580,0.813,0.520,0.986,0.706,0.333,0.582,0.548,��쓌,4.5,��
2022/08/31,14:20,0.580,0.812,0.519,0.988,0.705,0.335,0.579,0.546,��쓌,4.7,��
2022/08/31,14:30,0.581,0.811,0.519,0.985,0.704,0.334,0.579,0.546,��쓌,5.1,��
2022/08/31,14:40,0.579,0.811,0.520,0.987,0.706,0.335,0.580,0.546,��쓌,6.1,��
2022/08/31,14:50,0.580,0.813,0.521,0.986,0.705,0.335,0.579,0.547,��,5.1,��
2022/08/31,15:00,0.582,0.812,0.520,0.985,0.707,0.333,0.581,0.547,��쓌,5.7,��
2022/08/31,15:10,0.581,0.811,0.520,0.987,0.707,0.336,0.581,0.545,��쓌,6.9,��
2022/08/31,15:20,0.580,0.812,0.521,0.987,0.708,0.335,0.580,0.547,��쓌,7.3,��
2022/08/31,15:30,0.581,0.812,0.520,0.987,0.707,0.335,0.581,0.546,��쓌,6.8,��
2022/08/31,15:40,0.581,0.813,0.519,0.987,0.706,0.334,0.580,0.546,��쓌,5.3,��
2022/08/31,15:50,0.584,0.813,0.520,0.988,0.707,0.336,0.579,0.548,��쓌,6.1,��
2022/08/31,16:00,0.583,0.814,0.522,0.988,0.706,0.335,0.580,0.546,��,3.7,��
2022/08/31,16:10,0.579,0.815,0.519,0.987,0.708,0.337,0.579,0.546,��,3.6,��
2022/08/31,16:20,0.578,0.814,0.522,0.989,0.706,0.335,0.581,0.546,��,2.8,��
2022/08/31,16:30,0.578,0.815,0.521,0.990,0.708,0.337,0.581,0.546,��,2.9,��
2022/08/31,16:40,0.579,0.814,0.520,0.988,0.708,0.337,0.581,0.546,��,2.6,��
2022/08/31,16:50,0.576,0.815,0.521,0.988,0.707,0.336,0.580,0.545,��,3.3,��
2022/08/31,17:00,0.580,0.817,0.521,0.989,0.709,0.337,0.580,0.546,�쐼,1.7,��
2022/08/31,17:10,0.580,0.816,0.521,0.988,0.708,0.338,0.580,0.547,��쐼,2.6,��
2022/08/31,17:20,0.580,0.817,0.521,0.991,0.707,0.335,0.580,0.548,��,3.8,��
2022/08/31,17:30,0.585,0.816,0.523,0.989,0.706,0.336,0.582,0.549,��,3.7,��
2022/08/31,17:40,0.586,0.816,0.522,0.989,0.707,0.336,0.582,0.548,��,3.6,��
2022/08/31,17:50,0.585,0.818,0.521,0.990,0.707,0.336,0.581,0.548,��쐼,2.6,��
2022/08/31,18:00,0.584,0.818,0.523,0.990,0.709,0.336,0.582,0.548,��쐼,3.9,��
2022/08/31,18:10,0.586,0.818,0.522,0.990,0.709,0.336,0.583,0.550,��,3.9,��
2022/08/31,18:20,0.586,0.817,0.521,0.991,0.709,0.336,0.581,0.549,��,4.4,��
2022/08/31,18:30,0.590,0.818,0.522,0.989,0.708,0.337,0.583,0.548,��쐼,3.5,��
2022/08/31,18:40,0.588,0.818,0.522,0.989,0.709,0.338,0.582,0.549,��,3.1,��
2022/08/31,18:50,0.585,0.817,0.521,0.992,0.707,0.336,0.582,0.550,��,3.5,��
2022/08/31,19:00,0.587,0.816,0.522,0.990,0.709,0.336,0.583,0.549,��,3.7,��
2022/08/31,19:10,0.584,0.818,0.521,0.990,0.709,0.336,0.581,0.550,��,4.7,��
2022/08/31,19:20,0.586,0.817,0.522,0.991,0.708,0.336,0.580,0.549,��,4.7,��
2022/08/31,19:30,0.585,0.818,0.522,0.990,0.708,0.338,0.582,0.549,��,4.2,��
2022/08/31,19:40,0.585,0.818,0.522,0.991,0.708,0.337,0.583,0.550,��쐼,4.1,��
2022/08/31,19:50,0.585,0.818,0.523,0.990,0.709,0.336,0.583,0.548,��,5.0,��
2022/08/31,20:00,0.585,0.815,0.521,0.989,0.709,0.337,0.582,0.548,��,4.5,��
2022/08/31,20:10,0.585,0.816,0.521,0.990,0.710,0.337,0.582,0.549,��,5.1,��
2022/08/31,20:20,0.584,0.819,0.523,0.991,0.708,0.337,0.582,0.548,��,6.2,��
2022/08/31,20:30,0.585,0.817,0.523,0.990,0.709,0.337,0.580,0.551,��,8.4,��
2022/08/31,20:40,0.585,0.817,0.522,0.990,0.708,0.336,0.581,0.549,��,8.3,��
2022/08/31,20:50,0.584,0.820,0.522,0.992,0.709,0.337,0.583,0.548,��,8.5,��
2022/08/31,21:00,0.584,0.819,0.522,0.992,0.708,0.336,0.582,0.549,��,8.9,��
2022/08/31,21:10,0.584,0.817,0.521,0.991,0.708,0.338,0.581,0.549,��,8.3,��
2022/08/31,21:20,0.586,0.818,0.523,0.991,0.708,0.336,0.582,0.549,��,7.4,��
2022/08/31,21:30,0.587,0.818,0.522,0.990,0.708,0.336,0.584,0.550,��,7.1,��
2022/08/31,21:40,0.585,0.819,0.521,0.992,0.709,0.336,0.581,0.549,��,6.5,��
2022/08/31,21:50,0.585,0.818,0.521,0.990,0.708,0.335,0.581,0.550,��,7.3,��
2022/08/31,22:00,0.586,0.819,0.524,0.991,0.709,0.338,0.581,0.549,��,7.5,��
2022/08/31,22:10,0.586,0.817,0.522,0.993,0.709,0.336,0.581,0.549,��,7.0,��
2022/08/31,22:20,0.585,0.818,0.523,0.991,0.709,0.336,0.582,0.547,��,7.6,��
2022/08/31,22:30,0.585,0.818,0.522,0.992,0.711,0.335,0.583,0.550,��,7.4,��
2022/08/31,22:40,0.585,0.817,0.521,0.989,0.708,0.335,0.582,0.549,��,7.2,��
2022/08/31,22:50,0.584,0.820,0.521,0.992,0.708,0.337,0.581,0.549,��,6.4,��
2022/08/31,23:00,0.586,0.819,0.522,0.991,0.710,0.336,0.583,0.550,��,5.3,��
2022/08/31,23:10,0.585,0.818,0.523,0.993,0.711,0.335,0.581,0.549,��,4.8,��
2022/08/31,23:20,0.584,0.819,0.523,0.989,0.710,0.336,0.582,0.550,��,4.7,��
2022/08/31,23:30,0.585,0.820,0.521,0.991,0.710,0.337,0.581,0.550,��쐼,6.1,��
2022/08/31,23:40,0.584,0.819,0.523,0.991,0.709,0.337,0.582,0.552,��쐼,5.8,��
2022/08/31,23:50,0.585,0.819,0.522,0.990,0.709,0.335,0.581,0.550,�쐼,5.5,��
